Torna al catalogo

FENGYUN 1C DEB

AttivoSSO
NORAD 36231·DEBRIS·🇨🇳 China

Lanciato May 10, 1999 da Taiyuan Satellite Launch Center

Loading…

Prossimi Passaggi (prossime 24 ore)

TLE

AggiornatoSource: Space-Track

Epoca: Sep 11, 2026, 04:43 UTC

1 36231U 99025DVG 26254.19674484  .00000094  00000-0  73869-4 0  9992
2 36231  98.7215 226.2735 0059722 278.0136  81.4262 14.12126684893882

Traccia FENGYUN 1C DEB in tempo reale con AllMySat

Download on the App Store